Main page
METAR-TAF:

METAR-TAF

Airports :

Khorramabad, Iran

Khorramabad Airport

latitude: 33-26-11N, longitude: 048-17-09E, elevation: 1155 m

Current weather observation

The report was made 1 hour and 5 minutes ago, at 13:00 UTC
Wind 12 kt from the North/Northwest
Temperature 25°C
Humidity 8%
Pressure 1016 hPa
Visibility 10 km or more
no clouds below 1500 m and no cumulonimbus

METAR: OICK 211300Z 33012KT CAVOK 25/M11 Q1016

Time: 17:35 (14:05 UTC)


TAF: missing

Weather observations and forecasts of more than 4000 airports (METAR and TAF reports).

The available stations are represented by yellow and red dots on the map.

Hover mouse over dot to see the name of the station.

Then click to see weather observations and forecasts.

To change the map : click on the green buttons with a black cross to zoom in, on the green button with a dash to zoom out, or on the green arrows for adjacent maps.


METAR-TAF: